User: anonymous   Login
Location: Gallinara
(44.0333°N, 8.2333°E)
Time: 10:02:01
(UTC+00:00)
Language:

Cosmos 1743 - Orbit

View from above orbital plane
View from above orbital plane
View from above satellite
View from above satellite

Ground track
Ground track

The orbit data is extracted from the following two-line orbital elements,

1 16719U 86034A   20336.74291698  .00000978  00000-0  49500-4 0  9991
2 16719  82.5526 193.4656 0010809 219.6130 185.2306 15.15826449886774
Epoch (UTC): 01 December 2020 17:49:48
Eccentricity: 0.0010809
inclination: 82.5526°
perigee height: 511 km
apogee height: 526 km
right ascension of ascending node: 193.4656°
argument of perigee: 219.6130°
revolutions per day: 15.15826449
mean anomaly at epoch: 185.2306°
orbit number at epoch: 88677

The dashed part of the orbit path shows where the satellite is in the earth's shadow,  

DLR